DELTA 1 DEB, 21550

Orbit data source: Space-Track

DELTA 1 DEB, 21550 is space debris in SSO originally from a launch on Thu, 12 Jun 1975 UTC launched from the Air Force Western Test Range (AFWTR). Debris objects in space refer to the collection of defunct objects orbiting the Earth. Examples of debris include non-operational satellites, rocket bodies, and fragments generated from explosions, collisions, or faulty payload assembly.

Loading next visibility...
Identifier
21550, 1975-052HE
Orbit
SSO
Country
Flag of USUS
Related business
Manufacturer
Unknown
Mission
Spacecraft
Bus & Motor
Unknown
Mass
Unknown
Launch date (UTC)
1975-06-12 (51 years ago)
Launch vehicle
Unknown
Launch site
Air Force Western Test Range (AFWTR)
Object type
Payload
Rocket body
Debris
Shape & HBR
Unknown shape, 0.1 m
Radar Cross Section
Small (<0.1 m²)

Expand to show TLE details & history
Last TLE update: 7 hours ago

TLE from 7 hours ago
0 DELTA 1 DEB
1 21550U 75052HE  26127.18695455  .00000438  00000-0  18972-2 0  9997
2 21550  99.8527  29.8901 0547452  83.9682  68.5160 12.46050329587353
Epoch: 2026-05-07T04:29Z
TLE epoch observation values (Epoch: 2026-05-07T04:29:12.873Z)
Latitude
21.2165°
Longitude
-78.6036°
Altitude
1,346.812 km
Speed
7.249 km/s
True Right ascension
14h 14m 56s
True Declination
21° 06' 34"
Sunlit
Object was in full shadow at epoch
Visualization orbit readout
Latitude
Unknown
Longitude
Unknown
Altitude
Unknown
Speed
Unknown
Apparent Right ascension
Unknown
Apparent Declination
Unknown
Sunlit
N/A
Visualization observer readout
Local Sidereal Time
19:09:20
Azimuth
Unknown
Elevation
Unknown
Doppler factor
Unknown
Orbital elements
Apogee altitude
1,908.61 km
Perigee altitude
1,048.384 km
Semi-major axis
7,856.634 km
Eccentricity
0.05475
Inclination
99.8527°
RAAN
29.8901°
Arg. of periapsis
83.9682°
True anomaly
74.49248°
Mean anomaly
68.516°
Eccentric anomaly
71.49041°
Mean motion
3.11665 °/min
Orbital period
115.51 mins
BSTAR
0.0018972
Loading maneuver chart data...
Computing Atmospheric mass density...
Loading historical data...
Loading historical data...
Loading historical data...
Loading historical data...
Loading historical data...
Loading historical data...
Loading historical data...

Documentation

Showing up to 5 results
|